"read_dt","SO2 (ppb)","flags","PMT voltage (V)","lamp voltage (V)","lamp intensity (Hz)","internal temp (C)","react chamber temp (C)","sample flow (l/min)","pres (mmHg)","SO2 bkg (ppb)","SO2 coefficient"
2015-09-01 00:00:00,1988E-3,5C000400,-0724,0821,12018,027.5,045.4,0.257,748.3,01.17,0.508
2015-09-01 00:01:00,2115E-3,5C000400,-0724,0821,12398,027.5,045.4,0.257,748.2,01.17,0.508
2015-09-01 00:02:00,1999E-3,5C000400,-0724,0822,12154,027.5,045.4,0.257,748.2,01.17,0.508
2015-09-01 00:03:00,2078E-3,5C000400,-0724,0822,12266,027.5,045.5,0.257,748.2,01.17,0.508
2015-09-01 00:04:00,2115E-3,5C000400,-0724,0821,12160,027.5,045.5,0.257,748.2,01.17,0.508
2015-09-01 00:05:00,2100E-3,5C000400,-0724,0822,12246,027.5,045.4,0.257,748.2,01.17,0.508
2015-09-01 00:06:00,2128E-3,5C000400,-0724,0821,12341,027.5,045.4,0.257,748.2,01.17,0.508
2015-09-01 00:07:00,2091E-3,5C000400,-0724,0821,12258,027.4,045.4,0.257,748.2,01.17,0.508
2015-09-01 00:08:00,2050E-3,5C000400,-0724,0822,12257,027.4,045.4,0.257,748.2,01.17,0.508
2015-09-01 00:09:00,2107E-3,5C000400,-0724,0821,12278,027.4,045.4,0.257,748.2,01.17,0.508
2015-09-01 00:10:00,2061E-3,5C000400,-0724,0822,12189,027.4,045.4,0.257,748.1,01.17,0.508
2015-09-01 00:11:00,1995E-3,5C000400,-0724,0821,12406,027.4,045.4,0.257,748.1,01.17,0.508
2015-09-01 00:12:00,2082E-3,5C000400,-0724,0821,12248,027.4,045.4,0.257,748.1,01.17,0.508
2015-09-01 00:13:00,2125E-3,5C000400,-0724,0821,12285,027.4,045.4,0.257,748.1,01.17,0.508
2015-09-01 00:14:00,2215E-3,5C000400,-0724,0822,12249,027.4,045.5,0.257,748.1,01.17,0.508
2015-09-01 00:15:00,2116E-3,5C000400,-0724,0821,12204,027.5,045.5,0.257,748.0,01.17,0.508
2015-09-01 00:16:00,2138E-3,5C000400,-0724,0821,12127,027.6,045.5,0.257,748.0,01.17,0.508
2015-09-01 00:17:00,2087E-3,5C000400,-0724,0821,12341,027.6,045.4,0.257,748.0,01.17,0.508
2015-09-01 00:18:00,2194E-3,5C000400,-0724,0821,12269,027.7,045.4,0.257,748.0,01.17,0.508
2015-09-01 00:19:00,2038E-3,5C000400,-0724,0820,12302,027.7,045.5,0.257,748.0,01.17,0.508
2015-09-01 00:20:00,2165E-3,5C000400,-0724,0821,12281,027.7,045.5,0.257,748.0,01.17,0.508
2015-09-01 00:21:00,1990E-3,5C000400,-0724,0822,12349,027.6,045.5,0.257,748.0,01.17,0.508
2015-09-01 00:22:00,2251E-3,5C000400,-0724,0821,12271,027.5,045.4,0.257,748.0,01.17,0.508
2015-09-01 00:23:00,2138E-3,5C000400,-0724,0821,12359,027.5,045.4,0.257,748.0,01.17,0.508
2015-09-01 00:24:00,2155E-3,5C000400,-0724,0821,12258,027.5,045.5,0.257,748.0,01.17,0.508
2015-09-01 00:25:00,2022E-3,5C000400,-0724,0821,12320,027.5,045.4,0.258,748.0,01.17,0.508
2015-09-01 00:26:00,2085E-3,5C000400,-0724,0821,12302,027.5,045.4,0.257,748.0,01.17,0.508
2015-09-01 00:27:00,2031E-3,5C000400,-0724,0822,12250,027.5,045.4,0.257,748.0,01.17,0.508
2015-09-01 00:28:00,2082E-3,5C000400,-0724,0821,12232,027.5,045.4,0.257,748.0,01.17,0.508
2015-09-01 00:29:00,2075E-3,5C000400,-0724,0820,12223,027.5,045.4,0.257,748.0,01.17,0.508
2015-09-01 00:30:00,2105E-3,5C000400,-0724,0821,12282,027.5,045.4,0.257,748.0,01.17,0.508
2015-09-01 00:31:00,2091E-3,5C000400,-0724,0822,12449,027.5,045.5,0.257,748.0,01.17,0.508
2015-09-01 00:32:00,2143E-3,5C000400,-0724,0821,12423,027.5,045.5,0.257,748.0,01.17,0.508
2015-09-01 00:33:00,2023E-3,5C000400,-0724,0821,12376,027.5,045.5,0.257,748.0,01.17,0.508
2015-09-01 00:34:00,2082E-3,5C000400,-0724,0822,12272,027.5,045.5,0.257,747.9,01.17,0.508
2015-09-01 00:35:00,2145E-3,5C000400,-0724,0821,12398,027.5,045.4,0.257,747.9,01.17,0.508
2015-09-01 00:36:00,2034E-3,5C000400,-0724,0822,12299,027.5,045.4,0.257,747.9,01.17,0.508
2015-09-01 00:37:00,2166E-3,5C000400,-0724,0822,12319,027.5,045.4,0.257,748.0,01.17,0.508
2015-09-01 00:38:00,1992E-3,5C000400,-0724,0821,12461,027.5,045.5,0.257,748.0,01.17,0.508
2015-09-01 00:39:00,2122E-3,5C000400,-0724,0822,12164,027.5,045.5,0.257,747.9,01.17,0.508
2015-09-01 00:40:00,2240E-3,5C000400,-0724,0821,12321,027.5,045.4,0.257,747.9,01.17,0.508
2015-09-01 00:41:00,2056E-3,5C000400,-0724,0822,12365,027.5,045.4,0.257,747.9,01.17,0.508
2015-09-01 00:42:00,2112E-3,5C000400,-0724,0821,12315,027.5,045.4,0.257,747.9,01.17,0.508
2015-09-01 00:43:00,2144E-3,5C000400,-0724,0822,12351,027.5,045.5,0.257,747.9,01.17,0.508
2015-09-01 00:44:00,2175E-3,5C000400,-0724,0822,12240,027.5,045.5,0.257,747.9,01.17,0.508
2015-09-01 00:45:00,2053E-3,5C000400,-0724,0822,12305,027.5,045.5,0.257,747.9,01.17,0.508
2015-09-01 00:46:00,2041E-3,5C000400,-0724,0822,12169,027.5,045.5,0.257,747.9,01.17,0.508
2015-09-01 00:47:00,2083E-3,5C000400,-0724,0821,12161,027.5,045.4,0.257,747.8,01.17,0.508
2015-09-01 00:48:00,2155E-3,5C000400,-0724,0822,12106,027.5,045.4,0.257,747.8,01.17,0.508
2015-09-01 00:49:00,2061E-3,5C000400,-0724,0821,12408,027.5,045.5,0.257,747.8,01.17,0.508
2015-09-01 00:50:00,2150E-3,5C000400,-0724,0821,12189,027.5,045.5,0.257,747.8,01.17,0.508
2015-09-01 00:51:00,2057E-3,5C000400,-0724,0821,12306,027.5,045.5,0.257,747.8,01.17,0.508
2015-09-01 00:52:00,2222E-3,5C000400,-0724,0822,12367,027.5,045.4,0.257,747.8,01.17,0.508
2015-09-01 00:53:00,1995E-3,5C000400,-0724,0821,12152,027.5,045.4,0.257,747.9,01.17,0.508
2015-09-01 00:54:00,2173E-3,5C000400,-0724,0822,12388,027.5,045.4,0.257,747.9,01.17,0.508
2015-09-01 00:55:00,1957E-3,5C000400,-0724,0822,12244,027.5,045.5,0.257,747.9,01.17,0.508
2015-09-01 00:56:00,2113E-3,5C000400,-0724,0821,12416,027.5,045.5,0.257,747.9,01.17,0.508
2015-09-01 00:57:00,2123E-3,5C000400,-0724,0820,12186,027.5,045.4,0.257,747.9,01.17,0.508
2015-09-01 00:58:00,2186E-3,5C000400,-0724,0820,12264,027.4,045.4,0.257,747.9,01.17,0.508
2015-09-01 00:59:00,2015E-3,5C000400,-0724,0821,12326,027.4,045.4,0.257,747.8,01.17,0.508
2015-09-01 01:00:00,2071E-3,5C000400,-0724,0821,12272,027.4,045.5,0.257,747.8,01.17,0.508
2015-09-01 01:01:00,2028E-3,5C000400,-0724,0821,12176,027.5,045.4,0.257,747.8,01.17,0.508
2015-09-01 01:02:00,2074E-3,5C000400,-0724,0821,12317,027.4,045.4,0.257,747.8,01.17,0.508
2015-09-01 01:03:00,2209E-3,5C000400,-0724,0822,12273,027.4,045.5,0.257,747.8,01.17,0.508
2015-09-01 01:04:00,1990E-3,5C000400,-0724,0821,12255,027.5,045.5,0.257,747.8,01.17,0.508
2015-09-01 01:05:00,2152E-3,5C000400,-0724,0821,12181,027.5,045.4,0.257,747.8,01.17,0.508
2015-09-01 01:06:00,2017E-3,5C000400,-0724,0821,12238,027.5,045.4,0.257,747.8,01.17,0.508
2015-09-01 01:07:00,2165E-3,5C000400,-0724,0821,12267,027.5,045.5,0.257,747.8,01.17,0.508
2015-09-01 01:08:00,2007E-3,5C000400,-0724,0822,12309,027.5,045.5,0.257,747.8,01.17,0.508
2015-09-01 01:09:00,2131E-3,5C000400,-0724,0822,12246,027.5,045.5,0.257,747.8,01.17,0.508
2015-09-01 01:10:00,2146E-3,5C000400,-0724,0821,12341,027.5,045.4,0.257,747.8,01.17,0.508
2015-09-01 01:11:00,2050E-3,5C000400,-0724,0821,12375,027.4,045.4,0.257,747.8,01.17,0.508
2015-09-01 01:12:00,2013E-3,5C000400,-0724,0822,12180,027.5,045.4,0.257,747.8,01.17,0.508
2015-09-01 01:13:00,2028E-3,5C000400,-0724,0822,12343,027.4,045.5,0.257,747.8,01.17,0.508
2015-09-01 01:14:00,2143E-3,5C000400,-0724,0821,12265,027.5,045.4,0.257,747.8,01.17,0.508
2015-09-01 01:15:00,2071E-3,5C000400,-0724,0822,12180,027.5,045.4,0.257,747.7,01.17,0.508
2015-09-01 01:16:00,1942E-3,5C000400,-0724,0821,12237,027.4,045.4,0.257,747.7,01.17,0.508
2015-09-01 01:17:00,2146E-3,5C000400,-0724,0820,12320,027.4,045.4,0.257,747.7,01.17,0.508
2015-09-01 01:18:00,2093E-3,5C000400,-0724,0821,12392,027.4,045.4,0.257,747.7,01.17,0.508
2015-09-01 01:19:00,2018E-3,5C000400,-0724,0820,12183,027.4,045.4,0.257,747.8,01.17,0.508
2015-09-01 01:20:00,2090E-3,5C000400,-0724,0821,12256,027.4,045.4,0.257,747.7,01.17,0.508
2015-09-01 01:21:00,2009E-3,5C000400,-0724,0821,12183,027.4,045.4,0.257,747.7,01.17,0.508
2015-09-01 01:22:00,2096E-3,5C000400,-0724,0821,12185,027.4,045.4,0.257,747.7,01.17,0.508
2015-09-01 01:23:00,2080E-3,5C000400,-0724,0821,12370,027.4,045.4,0.258,747.6,01.17,0.508
2015-09-01 01:24:00,2077E-3,5C000400,-0724,0821,12245,027.4,045.4,0.257,747.6,01.17,0.508
2015-09-01 01:25:00,2150E-3,5C000400,-0724,0821,12344,027.5,045.4,0.258,747.6,01.17,0.508
2015-09-01 01:26:00,2018E-3,5C000400,-0724,0822,12295,027.5,045.4,0.258,747.6,01.17,0.508
2015-09-01 01:27:00,2075E-3,5C000400,-0724,0821,12272,027.6,045.5,0.257,747.6,01.17,0.508
2015-09-01 01:28:00,1990E-3,5C000400,-0724,0821,12305,027.6,045.5,0.257,747.7,01.17,0.508
2015-09-01 01:29:00,2160E-3,5C000400,-0724,0821,12348,027.6,045.4,0.257,747.7,01.17,0.508
2015-09-01 01:30:00,2033E-3,5C000400,-0724,0820,12291,027.5,045.4,0.257,747.6,01.17,0.508
2015-09-01 01:31:00,2056E-3,5C000400,-0724,0821,12046,027.5,045.4,0.257,747.7,01.17,0.508
2015-09-01 01:32:00,1966E-3,5C000400,-0724,0822,12502,027.5,045.4,0.257,747.7,01.17,0.508
2015-09-01 01:33:00,1998E-3,5C000400,-0724,0819,12121,027.4,045.4,0.257,747.6,01.17,0.508
2015-09-01 01:34:00,2053E-3,5C000400,-0724,0821,12175,027.4,045.4,0.257,747.6,01.17,0.508
2015-09-01 01:35:00,2303E-3,5C000400,-0724,0821,12350,027.4,045.4,0.257,747.6,01.17,0.508
2015-09-01 01:36:00,2138E-3,5C000400,-0724,0821,12337,027.4,045.4,0.257,747.6,01.17,0.508
2015-09-01 01:37:00,1994E-3,5C000400,-0724,0821,12336,027.5,045.4,0.258,747.6,01.17,0.508
2015-09-01 01:38:00,2093E-3,5C000400,-0724,0821,12255,027.4,045.4,0.257,747.6,01.17,0.508
2015-09-01 01:39:00,2035E-3,5C000400,-0724,0822,12348,027.5,045.4,0.257,747.5,01.17,0.508
2015-09-01 01:40:00,2010E-3,5C000400,-0724,0821,12341,027.5,045.5,0.257,747.5,01.17,0.508
2015-09-01 01:41:00,2175E-3,5C000400,-0724,0822,12347,027.6,045.5,0.257,747.5,01.17,0.508
2015-09-01 01:42:00,2127E-3,5C000400,-0724,0821,12229,027.5,045.4,0.257,747.5,01.17,0.508
2015-09-01 01:43:00,2125E-3,5C000400,-0724,0820,12142,027.5,045.4,0.257,747.5,01.17,0.508
2015-09-01 01:44:00,2094E-3,5C000400,-0724,0822,12186,027.5,045.4,0.257,747.5,01.17,0.508
2015-09-01 01:45:00,2068E-3,5C000400,-0724,0821,12119,027.5,045.4,0.257,747.5,01.17,0.508
2015-09-01 01:46:00,2095E-3,5C000400,-0724,0821,12258,027.5,045.4,0.257,747.5,01.17,0.508
2015-09-01 01:47:00,2119E-3,5C000400,-0724,0821,12264,027.5,045.5,0.257,747.5,01.17,0.508
2015-09-01 01:48:00,2049E-3,5C000400,-0724,0820,12277,027.4,045.4,0.257,747.5,01.17,0.508
2015-09-01 01:49:00,2102E-3,5C000400,-0724,0822,12333,027.4,045.5,0.257,747.5,01.17,0.508
2015-09-01 01:50:00,bad,5C000400,-0724,0820,12313,027.4,045.4,0.257,747.5,01.17,0.508
2015-09-01 01:51:00,2229E-3,5C000400,-0724,0820,12245,027.5,045.5,0.257,747.4,01.17,0.508
2015-09-01 01:52:00,2181E-3,5C000400,-0724,0822,12447,027.4,045.4,0.257,747.4,01.17,0.508
2015-09-01 01:53:00,2092E-3,5C000400,-0724,0823,12128,027.5,045.5,0.257,747.4,01.17,0.508
2015-09-01 01:54:00,2096E-3,5C000400,-0724,0820,12427,027.4,045.4,0.257,747.4,01.17,0.508
2015-09-01 01:55:00,2195E-3,5C000400,-0724,0821,12253,027.4,045.4,0.257,747.4,01.17,0.508
2015-09-01 01:56:00,2143E-3,5C000400,-0724,0821,12233,027.5,045.4,0.257,747.4,01.17,0.508
2015-09-01 01:57:00,1999E-3,5C000400,-0724,0822,12312,027.4,045.4,0.257,747.4,01.17,0.508
2015-09-01 01:58:00,2114E-3,5C000400,-0724,0821,12143,027.5,045.5,0.257,747.4,01.17,0.508
2015-09-01 01:59:00,1920E-3,5C000400,-0724,0822,12233,027.5,045.4,0.258,747.4,01.17,0.508
2015-09-01 02:00:00,2158E-3,5C000400,-0724,0822,12315,027.5,045.4,0.257,747.4,01.17,0.508
2015-09-01 02:01:00,2226E-3,5C000400,-0724,0821,12244,027.5,045.4,0.257,747.4,01.17,0.508
2015-09-01 02:02:00,1992E-3,5C000400,-0724,0821,12288,027.5,045.5,0.257,747.3,01.17,0.508
2015-09-01 02:03:00,2129E-3,5C000400,-0724,0822,12363,027.5,045.5,0.257,747.4,01.17,0.508
2015-09-01 02:04:00,2230E-3,5C000400,-0724,0822,12192,027.5,045.4,0.257,747.4,01.17,0.508
2015-09-01 02:05:00,2079E-3,5C000400,-0724,0822,12327,027.4,045.5,0.257,747.4,01.17,0.508
2015-09-01 02:06:00,2105E-3,5C000400,-0724,0822,12207,027.4,045.4,0.257,747.4,01.17,0.508
2015-09-01 02:07:00,2063E-3,5C000400,-0724,0821,12180,027.4,045.4,0.257,747.2,01.17,0.508
2015-09-01 02:08:00,2138E-3,5C000400,-0724,0821,12294,027.4,045.4,0.257,747.2,01.17,0.508
2015-09-01 02:09:00,2064E-3,5C000400,-0724,0822,12280,027.4,045.4,0.257,747.2,01.17,0.508
2015-09-01 02:10:00,1992E-3,5C000400,-0724,0821,12155,027.4,045.4,0.257,747.2,01.17,0.508
2015-09-01 02:11:00,2029E-3,5C000400,-0724,0822,12422,027.4,045.4,0.257,747.2,01.17,0.508
2015-09-01 02:12:00,1989E-3,5C000400,-0724,0822,12097,027.4,045.4,0.257,747.1,01.17,0.508
2015-09-01 02:13:00,2075E-3,5C000400,-0724,0822,12310,027.4,045.4,0.257,747.2,01.17,0.508
2015-09-01 02:14:00,2158E-3,5C000400,-0724,0822,12160,027.4,045.4,0.257,747.1,01.17,0.508
2015-09-01 02:15:00,2156E-3,5C000400,-0724,0822,12304,027.4,045.4,0.257,747.2,01.17,0.508
2015-09-01 02:16:00,2077E-3,5C000400,-0724,0823,12334,027.5,045.4,0.257,747.2,01.17,0.508
2015-09-01 02:17:00,2249E-3,5C000400,-0724,0822,12251,027.5,045.4,0.257,747.2,01.17,0.508
2015-09-01 02:18:00,2029E-3,5C000400,-0724,0823,12318,027.5,045.4,0.257,747.2,01.17,0.508
2015-09-01 02:19:00,2137E-3,5C000400,-0724,0821,12059,027.5,045.4,0.257,747.2,01.17,0.508
2015-09-01 02:20:00,2113E-3,5C000400,-0724,0822,12314,027.4,045.5,0.257,747.2,01.17,0.508
2015-09-01 02:21:00,2008E-3,5C000400,-0724,0822,12306,027.4,045.4,0.257,747.2,01.17,0.508
2015-09-01 02:22:00,2048E-3,5C000400,-0724,0823,12220,027.4,045.5,0.257,747.2,01.17,0.508
2015-09-01 02:23:00,2169E-3,5C000400,-0724,0823,12282,027.4,045.4,0.257,747.1,01.17,0.508
2015-09-01 02:24:00,2083E-3,5C000400,-0724,0822,12294,027.4,045.4,0.258,747.1,01.17,0.508
2015-09-01 02:25:00,2007E-3,5C000400,-0724,0821,12245,027.4,045.4,0.257,747.1,01.17,0.508
2015-09-01 02:26:00,2102E-3,5C000400,-0724,0821,12110,027.4,045.4,0.258,747.1,01.17,0.508
2015-09-01 02:27:00,2206E-3,5C000400,-0724,0821,12253,027.4,045.4,0.257,747.2,01.17,0.508
2015-09-01 02:28:00,2066E-3,5C000400,-0724,0822,12314,027.4,045.5,0.257,747.1,01.17,0.508
2015-09-01 02:29:00,1954E-3,5C000400,-0724,0822,12236,027.3,045.4,0.258,747.2,01.17,0.508
2015-09-01 02:30:00,2034E-3,5C000400,-0724,0822,12286,027.4,045.4,0.257,747.2,01.17,0.508
2015-09-01 02:31:00,2124E-3,5C000400,-0724,0822,12314,027.4,045.4,0.257,747.2,01.17,0.508
2015-09-01 02:32:00,2089E-3,5C000400,-0724,0822,12192,027.4,045.4,0.257,747.2,01.17,0.508
2015-09-01 02:33:00,2266E-3,5C000400,-0724,0822,12220,027.4,045.4,0.257,747.2,01.17,0.508
2015-09-01 02:34:00,2067E-3,5C000400,-0724,0822,12236,027.4,045.4,0.257,747.2,01.17,0.508
2015-09-01 02:35:00,2106E-3,5C000400,-0724,0821,12220,027.4,045.4,0.257,747.2,01.17,0.508
2015-09-01 02:36:00,1918E-3,5C000400,-0724,0822,12181,027.4,045.4,0.257,747.2,01.17,0.508
2015-09-01 02:37:00,2118E-3,5C000400,-0724,0822,12234,027.4,045.5,0.257,747.2,01.17,0.508
2015-09-01 02:38:00,2158E-3,5C000400,-0724,0821,12167,027.4,045.5,0.257,747.2,01.17,0.508
2015-09-01 02:39:00,2038E-3,5C000400,-0724,0822,12253,027.4,045.4,0.258,747.2,01.17,0.508
2015-09-01 02:40:00,2051E-3,5C000400,-0724,0822,12373,027.5,045.4,0.257,747.2,01.17,0.508
2015-09-01 02:41:00,2049E-3,5C000400,-0724,0821,12295,027.5,045.4,0.257,747.2,01.17,0.508
2015-09-01 02:42:00,2063E-3,5C000400,-0724,0821,11929,027.4,045.4,0.257,747.2,01.17,0.508
2015-09-01 02:43:00,2073E-3,5C000400,-0724,0822,12107,027.4,045.4,0.257,747.3,01.17,0.508
2015-09-01 02:44:00,2171E-3,5C000400,-0724,0820,12386,027.4,045.4,0.257,747.2,01.17,0.508
2015-09-01 02:45:00,2035E-3,5C000400,-0724,0821,12270,027.4,045.4,0.257,747.2,01.17,0.508
2015-09-01 02:46:00,2148E-3,5C000400,-0724,0821,12232,027.4,045.5,0.257,747.2,01.17,0.508
2015-09-01 02:47:00,2157E-3,5C000400,-0724,0820,12271,027.5,045.5,0.257,747.2,01.17,0.508
2015-09-01 02:48:00,2055E-3,5C000400,-0724,0821,12303,027.5,045.4,0.257,747.2,01.17,0.508
2015-09-01 02:49:00,2103E-3,5C000400,-0724,0821,12190,027.5,045.4,0.257,747.2,01.17,0.508
2015-09-01 02:50:00,2081E-3,5C000400,-0724,0821,12229,027.4,045.4,0.257,747.2,01.17,0.508
2015-09-01 02:51:00,2099E-3,5C000400,-0724,0821,12283,027.4,045.4,0.257,747.2,01.17,0.508
2015-09-01 02:52:00,2186E-3,5C000400,-0724,0821,12320,027.4,045.4,0.257,747.3,01.17,0.508
2015-09-01 02:53:00,2081E-3,5C000400,-0724,0821,12503,027.4,045.5,0.257,747.3,01.17,0.508
2015-09-01 02:54:00,2058E-3,5C000400,-0724,0821,12082,027.4,045.4,0.257,747.3,01.17,0.508
2015-09-01 02:55:00,2239E-3,5C000400,-0724,0820,12271,027.4,045.4,0.258,747.3,01.17,0.508
2015-09-01 02:56:00,1990E-3,5C000400,-0724,0821,12206,027.4,045.4,0.257,747.3,01.17,0.508
2015-09-01 02:57:00,2062E-3,5C000400,-0724,0820,12329,027.5,045.5,0.257,747.3,01.17,0.508
2015-09-01 02:58:00,2060E-3,5C000400,-0724,0820,12236,027.4,045.5,0.258,747.2,01.17,0.508
2015-09-01 02:59:00,2003E-3,5C000400,-0724,0821,12292,027.4,045.5,0.257,747.3,01.17,0.508
2015-09-01 03:00:00,2120E-3,5C000400,-0724,0820,12265,027.5,045.4,0.257,747.3,01.17,0.508
2015-09-01 03:01:00,2086E-3,5C000400,-0724,0820,12351,027.4,045.4,0.258,747.2,01.17,0.508
2015-09-01 03:02:00,2084E-3,5C000400,-0724,0821,12241,027.4,045.4,0.257,747.3,01.17,0.508
2015-09-01 03:03:00,2128E-3,5C000400,-0724,0821,12290,027.4,045.4,0.257,747.2,01.17,0.508
2015-09-01 03:04:00,2199E-3,5C000400,-0724,0821,12210,027.4,045.5,0.257,747.2,01.17,0.508
2015-09-01 03:05:00,2099E-3,5C000400,-0724,0820,12342,027.4,045.5,0.257,747.2,01.17,0.508
2015-09-01 03:06:00,1996E-3,5C000400,-0724,0820,12318,027.4,045.4,0.257,747.2,01.17,0.508
2015-09-01 03:07:00,2086E-3,5C000400,-0724,0820,12237,027.5,045.4,0.257,747.2,01.17,0.508
2015-09-01 03:08:00,2164E-3,5C000400,-0724,0821,12163,027.4,045.4,0.257,747.2,01.17,0.508
2015-09-01 03:09:00,2144E-3,5C000400,-0724,0821,12176,027.5,045.5,0.257,747.2,01.17,0.508
2015-09-01 03:10:00,2059E-3,5C000400,-0724,0820,12487,027.4,045.5,0.257,747.2,01.17,0.508
2015-09-01 03:11:00,2261E-3,5C000400,-0724,0820,12196,027.4,045.4,0.257,747.2,01.17,0.508
2015-09-01 03:12:00,2076E-3,5C000400,-0724,0820,12334,027.4,045.4,0.257,747.2,01.17,0.508
2015-09-01 03:13:00,2003E-3,5C000400,-0724,0821,12349,027.4,045.4,0.258,747.2,01.17,0.508
2015-09-01 03:14:00,2131E-3,5C000400,-0724,0821,12080,027.4,045.4,0.257,747.2,01.17,0.508
2015-09-01 03:15:00,2169E-3,5C000400,-0724,0820,12221,027.4,045.4,0.257,747.2,01.17,0.508
2015-09-01 03:16:00,2063E-3,5C000400,-0724,0821,12414,027.4,045.4,0.257,747.2,01.17,0.508
2015-09-01 03:17:00,2160E-3,5C000400,-0724,0821,12164,027.4,045.4,0.257,747.2,01.17,0.508
2015-09-01 03:18:00,2123E-3,5C000400,-0724,0821,12165,027.4,045.4,0.257,747.2,01.17,0.508
2015-09-01 03:19:00,2166E-3,5C000400,-0724,0820,12229,027.4,045.5,0.257,747.2,01.17,0.508
2015-09-01 03:20:00,2198E-3,5C000400,-0724,0819,12304,027.4,045.4,0.257,747.2,01.17,0.508
2015-09-01 03:21:00,2187E-3,5C000400,-0724,0822,12300,027.4,045.4,0.257,747.2,01.17,0.508
2015-09-01 03:22:00,2149E-3,5C000400,-0724,0820,12154,027.4,045.4,0.257,747.2,01.17,0.508
2015-09-01 03:23:00,2143E-3,5C000400,-0724,0819,12386,027.4,045.5,0.257,747.1,01.17,0.508
2015-09-01 03:24:00,2239E-3,5C000400,-0724,0819,12175,027.4,045.4,0.258,747.1,01.17,0.508
2015-09-01 03:25:00,2066E-3,5C000400,-0724,0821,12351,027.4,045.4,0.257,747.2,01.17,0.508
2015-09-01 03:26:00,2086E-3,5C000400,-0724,0822,12336,027.4,045.4,0.258,747.1,01.17,0.508
2015-09-01 03:27:00,2113E-3,5C000400,-0724,0822,12385,027.4,045.5,0.257,747.2,01.17,0.508
2015-09-01 03:28:00,2125E-3,5C000400,-0724,0822,12241,027.3,045.5,0.257,747.1,01.17,0.508
2015-09-01 03:29:00,2146E-3,5C000400,-0724,0821,12320,027.4,045.4,0.258,747.2,01.17,0.508
2015-09-01 03:30:00,2204E-3,5C000400,-0724,0821,12168,027.4,045.5,0.257,747.2,01.17,0.508
2015-09-01 03:31:00,2192E-3,5C000400,-0724,0822,12449,027.4,045.5,0.257,747.2,01.17,0.508
2015-09-01 03:32:00,2074E-3,5C000400,-0724,0822,12346,027.4,045.4,0.257,747.2,01.17,0.508
2015-09-01 03:33:00,2131E-3,5C000400,-0724,0820,12451,027.4,045.4,0.257,747.2,01.17,0.508
2015-09-01 03:34:00,2108E-3,5C000400,-0724,0821,12435,027.4,045.4,0.257,747.1,01.17,0.508
2015-09-01 03:35:00,2174E-3,5C000400,-0724,0821,12315,027.4,045.5,0.257,747.1,01.17,0.508
2015-09-01 03:36:00,2104E-3,5C000400,-0724,0821,12303,027.4,045.5,0.258,747.1,01.17,0.508
2015-09-01 03:37:00,2111E-3,5C000400,-0724,0821,12257,027.4,045.4,0.257,747.0,01.17,0.508
2015-09-01 03:38:00,2060E-3,5C000400,-0724,0821,12422,027.4,045.4,0.257,747.1,01.17,0.508
2015-09-01 03:39:00,2164E-3,5C000400,-0724,0820,12489,027.4,045.4,0.257,747.1,01.17,0.508
2015-09-01 03:40:00,1985E-3,5C000400,-0724,0821,12358,027.4,045.4,0.257,747.1,01.17,0.508
2015-09-01 03:41:00,2142E-3,5C000400,-0724,0821,12324,027.4,045.4,0.257,747.1,01.17,0.508
2015-09-01 03:42:00,2114E-3,5C000400,-0724,0821,12294,027.4,045.4,0.257,747.1,01.17,0.508
2015-09-01 03:43:00,2117E-3,5C000400,-0724,0821,12251,027.4,045.4,0.257,747.1,01.17,0.508
2015-09-01 03:44:00,2123E-3,5C000400,-0724,0821,12262,027.4,045.5,0.258,747.1,01.17,0.508
2015-09-01 03:45:00,2019E-3,5C000400,-0724,0821,12402,027.4,045.5,0.257,747.1,01.17,0.508
2015-09-01 03:46:00,2153E-3,5C000400,-0724,0821,12072,027.4,045.4,0.257,747.0,01.17,0.508
2015-09-01 03:47:00,2165E-3,5C000400,-0724,0821,12312,027.4,045.5,0.258,747.1,01.17,0.508
2015-09-01 03:48:00,2076E-3,5C000400,-0724,0821,12208,027.4,045.5,0.257,747.1,01.17,0.508
2015-09-01 03:49:00,2236E-3,5C000400,-0724,0821,12346,027.4,045.5,0.257,747.1,01.17,0.508
2015-09-01 03:50:00,2008E-3,5C000400,-0724,0821,12198,027.4,045.5,0.257,747.0,01.17,0.508
2015-09-01 03:51:00,2189E-3,5C000400,-0724,0821,12371,027.4,045.4,0.257,747.2,01.17,0.508
2015-09-01 03:52:00,2153E-3,5C000400,-0724,0821,12055,027.4,045.4,0.257,747.0,01.17,0.508
2015-09-01 03:53:00,2120E-3,5C000400,-0724,0822,12282,027.4,045.4,0.258,747.1,01.17,0.508
2015-09-01 03:54:00,2111E-3,5C000400,-0724,0821,12292,027.4,045.4,0.257,747.0,01.17,0.508
2015-09-01 03:55:00,2033E-3,5C000400,-0724,0821,12325,027.4,045.4,0.257,747.1,01.17,0.508
2015-09-01 03:56:00,2280E-3,5C000400,-0724,0821,12168,027.4,045.4,0.258,746.9,01.17,0.508
2015-09-01 03:57:00,2136E-3,5C000400,-0724,0821,12411,027.3,045.4,0.257,747.0,01.17,0.508
2015-09-01 03:58:00,2164E-3,5C000400,-0724,0822,12194,027.4,045.4,0.257,747.0,01.17,0.508
2015-09-01 03:59:00,2188E-3,5C000400,-0724,0821,12392,027.4,045.5,0.258,747.0,01.17,0.508
2015-09-01 04:00:00,2178E-3,5C000400,-0724,0821,12145,027.4,045.5,0.257,747.0,01.17,0.508
2015-09-01 04:01:00,2109E-3,5C000400,-0724,0820,12257,027.4,045.4,0.257,746.9,01.17,0.508
2015-09-01 04:02:00,2161E-3,5C000400,-0724,0821,12341,027.4,045.4,0.258,746.9,01.17,0.508
2015-09-01 04:03:00,2153E-3,5C000400,-0724,0821,12335,027.4,045.4,0.257,746.9,01.17,0.508
2015-09-01 04:04:00,2165E-3,5C000400,-0724,0820,12383,027.4,045.4,0.257,746.9,01.17,0.508
2015-09-01 04:05:00,2023E-3,5C000400,-0724,0822,12233,027.4,045.4,0.258,747.0,01.17,0.508
2015-09-01 04:06:00,2118E-3,5C000400,-0724,0822,12337,027.4,045.4,0.257,746.9,01.17,0.508
2015-09-01 04:07:00,2116E-3,5C000400,-0724,0821,12110,027.4,045.4,0.257,746.9,01.17,0.508
2015-09-01 04:08:00,2312E-3,5C000400,-0724,0821,12258,027.4,045.4,0.258,746.9,01.17,0.508
2015-09-01 04:09:00,1955E-3,5C000400,-0724,0821,12194,027.4,045.4,0.257,747.0,01.17,0.508
2015-09-01 04:10:00,2270E-3,5C000400,-0724,0821,12278,027.3,045.4,0.257,746.8,01.17,0.508
2015-09-01 04:11:00,2223E-3,5C000400,-0724,0820,12274,027.4,045.5,0.258,746.9,01.17,0.508
2015-09-01 04:12:00,1931E-3,5C000400,-0724,0820,12197,027.4,045.4,0.257,746.9,01.17,0.508
2015-09-01 04:13:00,2190E-3,5C000400,-0724,0821,12289,027.4,045.4,0.257,746.9,01.17,0.508
2015-09-01 04:14:00,2093E-3,5C000400,-0724,0822,12340,027.4,045.4,0.257,746.9,01.17,0.508
2015-09-01 04:15:00,2097E-3,5C000400,-0724,0820,12203,027.4,045.4,0.257,746.8,01.17,0.508
2015-09-01 04:16:00,2050E-3,5C000400,-0724,0822,12249,027.4,045.4,0.257,746.8,01.17,0.508
2015-09-01 04:17:00,2110E-3,5C000400,-0724,0820,12358,027.4,045.4,0.257,746.8,01.17,0.508
2015-09-01 04:18:00,2096E-3,5C000400,-0724,0820,12236,027.4,045.5,0.258,746.8,01.17,0.508
2015-09-01 04:19:00,2027E-3,5C000400,-0724,0821,12424,027.4,045.4,0.257,746.7,01.17,0.508
2015-09-01 04:20:00,2090E-3,5C000400,-0724,0822,12197,027.4,045.4,0.257,746.8,01.17,0.508